User: anonymous   Login
Location: *
(60.1759°S, 155.0663°W)
Time: 23:02:03
(UTC+00:00)
Language:

Cosmos 2266 Rocket - Orbit

View from above orbital plane
View from above orbital plane
View from above satellite
View from above satellite

Ground track
Ground track

The orbit data is extracted from the following two-line orbital elements,

1 22889U 93070B   19314.74076902  .00000032  00000-0  16570-4 0  9999
2 22889  82.9487  25.6951 0048579 293.5270  66.0788 13.77915405308343
Epoch (UTC): 10 November 2019 17:46:42
Eccentricity: 0.0048579
inclination: 82.9487°
perigee height: 935 km
apogee height: 1007 km
right ascension of ascending node: 25.6951°
argument of perigee: 293.5270°
revolutions per day: 13.77915405
mean anomaly at epoch: 66.0788°
orbit number at epoch: 30834

The dashed part of the orbit path shows where the satellite is in the earth's shadow,  

DLR